Regional Weather Roundup
Issued by NWS

Home | Current Version | Previous Version | Graphics & Text | Print | Product List | Glossary On
Versions: 1 2 3 4 5 6 7 8 9 10 11 12 13 14 15 16 17 18 19 20 21 22 23 24 25 26 27
000
ASUS45 KCYS 201710
RWRWY

WYOMING REGIONAL WEATHER ROUNDUP
NATIONAL WEATHER SERVICE CHEYENNE WY
1100 AM MDT WED SEP 20 2017

NOTE:  "FAIR" INDICATES FEW OR NO CLOUDS BELOW 12,000 FEET
WITH NO SIGNIFICANT WEATHER AND/OR OBSTRUCTIONS TO VISIBILITY.

WYZ001-201800-
YELLOWSTONE NATIONAL PARK

CITY           SKY/WX    TMP DP  RH WIND       PRES   REMARKS
LK YELLOWSTONE NOT AVBL
W YELLOWSTONE  NOT AVBL

$$
WYZ002>013-054>058-071-098>099-201800-
NORTHERN WYOMING

CITY           SKY/WX    TMP DP  RH WIND       PRES   REMARKS
JACKSON        PTSUNNY   47  27  45 SW18G25   29.88F
CODY           FAIR      54  25  32 W17G26    29.76F
GREYBULL       FAIR      56  33  42 SE15      29.78F
WORLAND        FAIR      58  29  33 S16       29.79F
SHERIDAN       FAIR      61  22  22 W5        29.72F
BUFFALO        FAIR      56  22  26 S17G23    29.78F
GILLETTE       FAIR      57  26  30 SW23G32   29.79F
HULETT         FAIR      55  32  41 SW10G18   29.81F
NEWCASTLE      FAIR      54  28  37 S5        29.87F

$$
WYZ014>020-022>026-101>103-201800-
CENTRAL WYOMING

CITY           SKY/WX    TMP DP  RH WIND       PRES   REMARKS
BIG PINEY      FAIR      44  27  51 S15       29.97F
PINEDALE       CLOUDY    41  32  70 SE8       29.99F
DUBOIS         FAIR      43  25  49 W25G33    29.85F
LANDER           N/A    N/A N/A N/A MISG      29.85F
RIVERTON       FAIR      54  21  27 SW13      29.87F
CASPER         FAIR     N/A N/A N/A MISG      29.91F
DOUGLAS        FAIR      60  23  24 W24G37    29.90R

$$
WYZ021-027>030-104>119-201800-
SOUTHERN WYOMING

CITY           SKY/WX    TMP DP  RH WIND       PRES   REMARKS
EVANSTON       FAIR      50  30  46 SW15      29.99F
KEMMERER         N/A     48  27  43 SW21G26   29.99F
FORT BRIDGER   FAIR      53  27  36 W12       30.02F
ROCK SPRINGS   FAIR      50  25  37 SW15      30.00F
DIXON          PTSUNNY   48  35  59 CALM      30.06S
RAWLINS        FAIR      50  30  46 SW17G29   30.01S
SARATOGA       FAIR      50  32  50 W8        30.04S
LARAMIE        FAIR      56  32  40 SW13G18   29.99F
CHEYENNE       FAIR      56  32  40 S23G29    29.99F
TORRINGTON     FAIR      64  22  20 W16G25    29.91F
PINE BLUFFS    FAIR      59  32  36 SW12G18   30.00F

$$




USA.gov is the U.S. government's official web portal to all federal, state and local government web resources and services.